Location: Culleoka
(33.1312°N, 96.4919°W)
Time: 02:25:58
(UTC+00:00)

Lacrosse 5 rocket - Pass Details

Date: 08 July 2022
Orbit: 456 x 628 km, 57.0° (Epoch: 09 August)

Event Time Altitude Azimuth Distance (km) Brightness Sun altitude
Rises 02:23:56 0° 314° (NW) 2,592 6.9 -9.0°
Reaches altitude 10° 02:26:07 10° 307° (NW) 1,733 5.5 -9.4°
Maximum altitude 02:29:50 43° 235° (SW) 749 2.2 -10.0°
Drops below altitude 10° 02:33:46 10° 163° (SSE) 1,825 3.5 -10.7°
Enters shadow 02:33:55 - 163° (SSE) 1,884 3.6 -10.7°
